Theta_e
308 308 307 307 307 308 308 308 308 308 307 307 307 307 308 308 308 308 308 308 308 308 309 309 309 309 310 310 311 311 311 312 313 313 314 315 314 313 312 312 313 313 314 315 313 313 314 315 315 315 317 316 316 318 318 318 317 318 320 319 316 317 318 318 318 317 316 316 316 315 313 314 316 314 311 310 311 313 313 313 313 313 313 314 315 314 312 312
308 308 308 307 307 308 308 308 308 308 307 308 308 308 308 308 308 308 308 309 309 309 309 309 310 310 310 310 311 311 312 312 313 313 314 315 315 314 313 312 313 313 314 314 314 314 314 314 315 316 317 316 316 317 318 318 318 319 320 318 317 319 318 317 317 316 315 316 316 315 312 312 314 314 312 312 315 314 314 315 315 313 313 314 315 313 312 311
308 308 308 308 308 308 308 308 308 308 308 308 308 308 309 308 309 309 309 309 309 309 310 310 310 310 310 310 311 311 312 312 312 313 314 315 315 314 315 314 314 313 314 314 314 314 313 314 314 315 316 316 316 317 318 318 318 319 319 318 319 319 318 315 315 315 315 315 315 315 312 311 313 312 312 313 315 315 315 316 316 315 315 316 315 315 314 312
308 308 308 308 308 308 308 308 308 308 308 309 309 309 309 309 309 309 309 309 310 310 310 310 310 310 310 310 311 311 312 314 314 314 315 315 315 314 315 315 314 314 314 314 315 313 312 313 314 314 315 315 315 316 318 318 319 318 317 319 319 318 317 316 314 315 314 312 313 314 312 313 313 311 311 313 315 315 316 316 316 316 316 316 315 316 316 314
308 308 308 308 308 308 309 309 309 308 308 309 310 309 308 308 308 309 309 309 309 309 310 310 309 309 309 309 310 311 313 314 315 315 315 315 315 314 314 315 315 314 314 314 314 313 313 314 314 314 314 315 316 316 317 317 317 317 317 319 319 316 316 317 315 314 312 310 312 313 313 314 312 310 311 313 314 316 317 317 317 316 315 316 315 316 316 315
309 308 308 309 309 309 309 309 310 309 308 309 310 309 309 309 308 308 309 309 309 309 309 309 309 309 308 308 310 312 314 313 313 315 316 315 315 314 314 316 315 314 314 314 313 313 313 313 314 314 314 314 316 316 315 316 315 317 318 317 318 316 316 316 315 313 311 311 313 313 314 313 312 313 313 313 314 316 316 316 316 316 316 315 313 314 315 315
310 310 309 309 309 310 311 311 311 310 309 310 310 310 310 310 310 310 310 309 309 309 309 309 309 309 308 309 312 313 313 314 313 315 315 315 315 314 315 315 315 315 314 314 313 313 313 313 314 314 314 314 315 315 315 315 314 316 317 316 316 316 316 316 314 313 312 312 314 314 313 313 314 315 313 312 314 315 315 315 315 316 316 314 312 312 313 314
312 312 311 311 311 311 311 311 311 310 311 311 311 310 310 310 310 310 310 311 311 311 311 311 310 310 309 311 314 313 313 314 313 314 314 314 314 314 315 316 315 315 314 314 314 314 313 313 314 313 314 315 314 314 313 314 315 315 316 316 315 314 314 315 313 312 312 312 313 313 312 314 315 314 312 313 314 314 315 315 315 315 314 313 311 311 311 312
313 312 312 312 312 311 311 311 311 312 312 311 311 310 310 311 310 310 310 310 311 311 311 311 311 311 311 311 313 312 312 314 313 314 313 313 314 314 315 316 316 314 314 314 313 314 314 314 314 313 314 314 312 313 312 313 315 315 316 316 315 314 314 314 312 312 312 312 312 312 313 314 313 311 312 313 314 314 314 314 314 313 312 312 311 311 311 311
314 313 314 313 311 312 312 313 314 315 313 312 312 312 313 313 312 311 311 310 310 310 310 311 311 312 311 311 312 312 313 314 313 314 314 313 314 315 316 316 315 314 314 313 313 314 314 315 314 313 313 312 312 312 311 312 313 312 313 313 313 313 312 312 311 311 311 311 311 311 313 313 311 310 313 314 313 313 313 313 313 312 311 311 312 311 311 310
314 314 314 313 313 315 316 317 317 316 315 314 314 315 315 314 314 313 312 310 309 309 309 309 310 311 311 310 313 314 313 313 313 314 314 314 314 315 316 316 315 315 314 312 312 313 314 314 313 312 312 312 311 311 310 311 311 310 310 311 312 312 312 311 311 311 310 310 310 311 312 312 311 310 312 314 313 312 311 312 312 312 312 312 312 311 311 311
314 314 314 314 316 317 318 319 318 317 317 318 318 317 315 314 313 313 312 311 309 308 308 308 309 311 311 311 313 314 313 311 312 313 313 315 315 316 316 316 316 315 315 313 312 313 312 312 312 312 312 311 311 310 309 309 309 308 309 311 312 312 312 312 312 311 310 310 309 310 311 311 311 311 312 313 313 311 310 311 311 312 312 312 312 311 311 311
314 314 315 316 317 318 319 319 319 318 319 319 319 317 315 314 314 313 312 311 310 309 307 307 309 309 311 314 314 314 313 311 311 311 312 314 315 315 315 315 315 314 315 314 312 312 311 311 312 312 310 310 311 310 308 308 308 309 310 310 311 312 312 312 312 309 308 309 309 309 310 311 313 313 313 313 312 310 309 310 311 311 312 312 312 311 311 312
314 314 315 317 317 318 318 319 319 319 319 320 319 317 317 316 315 312 311 311 310 309 308 308 308 309 311 314 313 312 313 311 310 310 311 313 313 313 313 313 313 313 313 311 310 311 310 310 311 311 309 310 311 309 309 309 309 311 310 310 311 312 313 312 310 307 308 309 308 309 310 311 313 313 314 312 309 309 309 310 311 311 311 311 311 311 312 312
315 315 315 316 317 317 318 318 318 318 319 320 319 318 317 315 313 311 311 311 311 310 308 308 309 309 311 312 312 312 312 312 311 310 310 311 312 312 311 311 311 311 311 310 310 310 309 310 310 310 310 309 309 310 311 311 310 311 311 312 313 312 313 313 311 309 310 309 306 309 310 311 312 313 313 311 308 308 309 310 311 311 311 311 311 311 311 311
315 315 315 316 316 316 317 317 318 318 319 319 319 317 315 313 312 311 311 310 310 309 309 311 310 309 311 312 312 311 311 312 312 311 311 310 311 312 311 310 310 310 310 310 310 309 309 310 310 310 310 309 310 311 312 312 313 312 311 313 314 313 312 313 312 311 310 308 307 308 310 312 312 312 312 311 309 309 309 310 311 311 312 312 312 311 312 311
316 315 315 315 315 315 316 316 317 319 319 320 319 316 313 313 312 310 310 309 310 310 309 312 310 308 311 311 311 312 310 310 311 312 311 311 311 311 311 310 310 310 310 310 309 309 309 310 309 310 311 310 311 312 313 314 314 313 313 313 313 313 312 311 312 312 310 308 309 309 309 310 311 311 311 311 311 310 310 310 310 311 312 312 312 312 312 311
317 316 316 315 315 315 315 316 317 319 320 320 318 314 313 314 312 310 310 310 310 310 310 310 309 312 314 311 311 311 310 310 311 311 312 311 310 311 311 310 310 310 311 311 310 310 310 310 310 312 313 311 311 312 315 315 314 314 314 313 313 312 311 311 311 312 310 309 310 310 310 310 310 310 311 311 311 310 310 310 311 311 311 311 312 312 312 312
320 319 319 317 315 315 316 316 317 319 319 320 318 312 314 315 311 310 311 310 311 313 314 311 311 315 316 312 311 310 310 310 311 311 311 311 310 310 310 310 310 311 311 312 312 310 311 311 312 314 314 314 313 313 315 316 314 314 313 312 313 312 311 311 312 311 310 309 310 310 311 312 311 311 311 311 311 311 311 311 311 311 311 312 312 312 313 312
322 322 321 320 318 317 318 318 319 319 319 321 317 312 316 317 315 314 311 311 313 313 314 312 311 313 314 313 311 311 311 311 311 311 310 309 310 310 309 309 311 312 312 314 314 310 310 313 314 315 316 315 315 314 314 314 312 311 312 312 313 313 313 312 312 312 309 309 310 311 311 311 311 311 311 311 312 311 312 312 312 312 312 313 313 313 313 311
322 323 322 321 321 321 321 321 322 320 318 320 318 315 316 315 318 318 313 315 316 312 313 313 311 312 313 312 310 311 312 311 311 311 310 309 309 311 310 310 312 313 313 314 312 309 309 314 315 315 315 314 313 312 312 312 311 311 312 313 313 313 313 312 312 312 309 308 311 311 311 311 311 311 311 311 312 311 312 312 312 312 313 313 314 313 311 311
323 324 323 323 323 322 322 323 323 321 319 319 317 313 312 311 313 312 311 316 317 311 311 311 309 310 311 310 308 309 311 311 312 312 310 309 310 312 311 310 312 314 313 311 312 311 312 314 314 314 314 312 310 309 309 310 311 311 312 313 313 313 313 312 312 311 308 308 311 311 310 311 311 311 312 312 312 312 312 312 313 313 314 313 312 311 310 311
324 324 324 324 324 323 323 323 323 321 319 319 316 312 312 311 309 308 309 314 315 312 311 310 309 309 310 310 309 309 311 312 312 312 311 310 310 311 311 311 312 313 312 311 313 316 315 314 313 313 312 310 310 309 309 310 311 312 312 313 313 313 314 313 311 309 307 308 310 310 310 311 312 312 312 312 312 312 312 312 313 314 313 312 311 311 310 311
325 325 325 325 324 324 324 324 323 321 319 318 316 315 314 311 308 308 311 314 316 315 310 309 309 309 310 309 309 310 311 311 311 311 311 310 310 310 311 312 311 312 312 312 314 316 316 313 310 310 310 310 311 311 310 311 312 313 314 313 313 314 314 313 312 311 310 310 310 310 312 313 314 314 314 313 311 311 313 313 312 313 311 311 311 311 311 311
325 325 325 325 325 324 324 324 322 320 319 317 317 316 314 310 308 308 312 316 319 316 311 309 309 309 308 307 308 309 310 310 309 308 308 309 310 310 310 309 310 313 313 312 312 314 315 311 308 311 311 310 311 311 312 313 313 314 315 314 313 313 313 313 314 312 312 313 311 311 314 315 314 314 315 315 313 313 315 314 312 311 310 311 312 311 311 311
324 324 324 324 324 323 322 323 320 319 321 318 317 317 314 311 309 308 312 318 322 320 315 311 310 309 307 307 307 308 311 311 307 306 308 309 309 309 310 309 309 311 312 311 311 312 313 309 307 311 312 312 312 312 313 313 312 314 315 315 313 312 313 313 313 312 313 314 311 310 314 315 315 314 314 315 314 314 316 315 313 311 310 311 311 310 311 311
323 323 323 323 324 323 323 323 320 320 322 319 317 317 314 313 309 307 313 323 325 320 316 311 309 309 307 306 306 308 313 311 307 307 307 308 308 308 310 310 309 309 307 309 312 312 311 309 308 311 312 312 312 312 313 312 312 314 314 314 314 312 314 313 312 312 312 312 311 311 312 314 315 315 314 314 314 315 317 316 313 310 309 310 310 310 310 309
321 321 321 322 323 323 323 323 322 322 323 320 318 317 316 314 309 308 318 329 327 317 313 310 307 308 307 305 305 307 308 306 308 309 305 306 308 307 310 311 310 310 307 309 315 312 310 312 312 312 312 312 313 314 314 312 312 314 311 310 311 311 311 311 311 312 311 311 313 313 312 315 317 315 312 312 313 316 316 313 311 309 309 309 309 309 308 307
319 319 320 321 322 322 322 322 322 323 322 320 319 319 317 314 310 312 322 329 324 315 311 309 308 307 307 307 306 306 305 305 309 308 305 307 307 307 309 309 308 310 307 308 314 314 310 309 310 312 313 312 313 313 312 313 313 312 309 309 310 310 309 309 310 311 310 312 315 314 313 316 318 316 313 313 313 315 315 311 308 308 309 309 309 309 307 306
318 318 319 321 321 321 322 321 322 322 322 321 320 319 317 315 314 320 327 326 322 316 312 310 310 308 308 309 309 307 307 307 307 307 307 308 307 306 306 305 306 309 309 308 311 312 308 305 306 310 312 312 312 309 307 312 313 310 310 311 312 310 309 309 309 310 312 316 317 314 314 316 318 317 315 314 313 312 312 310 309 308 308 309 308 307 305 304
316 317 318 320 320 321 320 321 322 322 322 321 319 318 319 320 320 325 327 322 319 318 312 310 311 309 309 312 312 309 309 308 307 308 309 308 309 309 307 308 308 310 311 310 312 312 308 306 308 311 311 310 311 309 306 307 309 309 311 311 312 313 311 311 310 310 315 320 317 312 313 315 317 317 314 313 313 311 310 311 311 310 308 308 307 305 304 302
315 316 317 318 319 319 320 321 321 321 322 320 319 321 323 324 324 325 324 319 321 322 315 313 313 311 311 313 314 314 312 311 309 309 312 312 312 311 311 314 313 315 316 315 315 315 312 311 310 310 310 308 310 311 308 306 307 309 310 310 314 316 317 319 317 315 318 319 312 308 311 314 315 316 313 314 315 312 310 310 310 308 307 307 305 304 302 301
312 313 315 317 318 319 319 320 320 321 321 319 320 324 324 324 325 325 323 322 322 320 316 315 313 311 313 315 318 316 313 315 312 309 313 314 313 313 315 315 314 316 318 315 316 317 317 316 310 310 311 308 310 312 312 312 309 309 310 312 316 319 320 323 321 319 320 318 309 306 310 313 314 315 314 314 314 312 308 307 306 306 306 305 303 302 301 300
310 311 312 314 316 317 319 320 320 320 320 319 322 325 323 324 324 323 323 323 322 319 317 317 315 314 314 316 320 317 315 319 314 310 312 313 314 317 317 315 312 313 316 315 315 317 319 319 313 314 315 310 309 312 316 316 310 309 311 313 317 319 321 323 323 322 323 321 313 309 313 317 317 315 312 312 313 310 306 304 304 305 305 303 302 301 300 299
306 307 309 310 313 316 318 319 319 319 318 320 324 325 323 324 323 321 322 322 323 322 319 318 319 319 317 317 319 316 315 319 315 311 312 313 315 317 317 318 314 312 315 316 317 317 318 319 317 315 312 309 310 314 316 315 312 310 310 312 314 316 318 320 321 322 322 322 318 314 316 317 316 315 313 313 313 308 305 305 304 305 303 302 300 299 298 297
304 304 306 307 309 312 316 318 319 318 318 321 324 323 322 322 322 322 321 318 320 324 322 320 321 321 320 319 318 315 314 316 315 313 313 313 316 317 318 321 317 312 314 318 320 319 317 318 318 312 308 308 310 313 313 314 314 310 309 312 314 315 317 317 317 319 318 319 320 319 318 317 317 317 314 312 311 306 305 305 304 304 302 300 299 297 297 296
303 303 303 305 307 310 313 317 319 317 318 321 323 322 321 321 320 320 320 317 316 320 321 320 319 320 320 319 318 316 315 315 315 315 315 314 315 316 317 318 317 313 313 316 320 320 318 319 318 314 313 310 307 308 311 313 312 310 311 314 314 313 313 313 315 318 318 319 321 322 321 319 320 319 312 310 311 309 307 305 303 302 300 299 298 296 295 295
301 302 304 305 305 307 311 316 318 316 318 322 322 321 320 320 319 318 319 318 317 320 321 320 319 321 320 318 317 316 314 316 315 315 317 316 314 317 317 317 316 312 311 313 317 318 318 319 319 316 315 311 305 307 310 311 311 311 311 312 312 314 314 313 315 317 319 320 321 320 320 319 319 318 315 314 313 311 307 304 301 300 298 298 297 295 294 294
302 307 311 308 305 305 309 315 316 316 320 323 322 321 320 320 320 319 319 319 319 320 320 319 319 320 320 320 321 319 316 317 316 315 317 316 315 315 315 316 315 310 308 309 313 315 315 317 320 318 315 310 307 309 311 312 311 309 309 309 309 312 314 314 315 316 318 320 320 320 320 319 318 318 316 315 312 310 308 304 300 298 296 296 295 294 294 293
305 313 315 310 307 306 309 314 316 317 322 323 321 320 320 319 319 319 317 317 318 318 318 320 321 319 320 322 321 320 319 318 317 317 317 317 317 316 314 314 315 311 308 309 312 313 313 315 317 318 315 312 310 312 313 313 312 309 309 310 309 310 311 312 313 314 317 318 320 321 321 320 319 317 314 311 309 308 306 302 299 296 295 294 293 293 293 293
306 313 314 311 310 309 311 316 318 319 321 322 319 318 318 318 317 317 316 315 317 318 316 319 321 318 319 321 319 319 321 320 318 319 320 318 317 317 314 312 312 312 312 314 314 312 313 315 316 316 315 314 314 314 313 313 314 312 311 311 311 311 312 313 315 316 316 316 318 320 320 321 320 315 311 308 305 304 302 300 297 295 294 294 293 293 292 292
307 310 311 312 311 310 314 318 318 319 320 320 319 318 318 319 317 317 316 314 316 318 317 317 319 319 318 318 317 318 320 320 319 318 319 318 317 315 312 310 311 312 314 315 316 314 311 312 314 315 314 315 315 315 313 312 312 313 313 313 313 313 312 315 317 317 317 316 317 318 319 321 317 309 305 303 301 300 299 298 296 294 294 293 293 292 292 292
308 309 309 311 311 311 315 318 318 319 319 318 318 318 318 319 319 317 316 316 317 317 318 318 317 316 317 317 316 317 318 318 318 317 317 317 316 312 310 310 311 311 313 315 316 315 310 310 313 314 314 314 314 314 313 311 311 314 315 314 313 313 314 316 316 316 317 317 318 318 318 321 315 304 300 300 297 297 297 296 296 295 293 293 292 292 292 291
306 307 307 309 310 312 315 316 316 318 318 317 317 317 317 318 318 316 315 317 318 316 317 318 316 316 316 316 315 315 316 316 316 316 316 316 315 309 307 309 309 309 312 313 313 314 313 313 315 316 316 316 315 315 315 312 312 313 313 313 313 314 315 315 314 312 313 315 316 316 317 319 314 304 300 299 297 296 295 294 295 294 293 293 292 292 292 292
303 303 305 306 307 310 313 313 314 316 317 316 316 316 316 317 317 316 316 315 316 316 316 316 315 315 315 315 315 314 315 315 315 315 314 314 315 310 306 307 308 308 310 311 310 312 312 313 314 315 317 317 316 316 315 313 312 311 311 312 313 312 313 314 314 314 315 315 314 315 315 315 312 307 305 304 301 298 295 294 293 293 293 293 292 292 292 292
302 303 306 307 306 308 310 309 311 315 316 316 317 315 315 316 315 314 315 315 314 314 315 315 314 313 313 314 314 313 313 314 314 314 313 313 315 312 305 305 307 306 307 308 308 309 310 311 313 314 314 315 314 314 314 313 312 312 313 313 313 312 312 311 312 314 315 315 314 314 315 315 313 312 311 311 309 304 298 295 293 293 292 292 292 292 291 291
303 304 305 307 308 309 309 308 309 313 312 313 315 314 313 314 313 312 313 313 312 313 314 314 313 313 313 312 313 313 312 313 313 313 312 311 314 311 304 303 304 303 304 305 305 307 309 309 311 312 312 312 312 312 312 311 311 311 311 311 311 312 311 311 311 311 311 312 312 312 312 313 312 312 312 312 311 306 299 295 294 293 292 292 292 292 291 291
300 301 299 300 305 308 308 307 307 308 309 310 311 311 311 312 312 311 312 310 310 311 313 313 311 311 311 310 312 313 312 312 312 312 312 311 311 310 306 304 302 300 302 304 303 306 308 308 308 309 309 309 308 309 309 308 308 307 307 308 308 308 309 309 309 308 309 310 309 308 309 310 309 309 309 307 304 301 297 294 294 293 292 292 292 292 291 291
296 298 296 296 301 302 302 302 302 304 306 307 308 309 310 311 311 310 310 309 309 309 310 311 309 305 306 307 309 310 309 310 310 309 310 311 309 307 306 306 302 299 300 302 303 305 306 306 306 306 305 306 306 306 306 305 305 304 304 305 305 305 306 306 306 306 306 306 306 305 306 306 306 305 304 301 298 297 295 293 293 293 293 293 292 292 292 291
296 297 296 296 298 297 296 298 299 301 304 304 306 307 308 309 309 309 308 308 308 308 308 309 305 301 303 305 306 306 307 307 307 306 306 307 307 305 304 305 302 300 300 301 302 304 304 305 304 303 303 304 303 303 303 303 303 302 302 302 302 302 302 302 303 303 303 303 303 303 304 304 303 301 298 296 295 295 293 292 292 293 293 293 293 293 292 291
294 295 295 297 298 296 296 296 297 300 301 302 304 305 305 305 305 305 305 303 303 305 305 303 300 299 300 301 301 303 304 303 303 303 300 300 302 302 300 301 300 299 300 301 302 302 302 302 302 302 302 303 302 301 301 300 300 300 300 299 299 300 300 301 301 302 303 303 303 302 303 303 300 297 295 294 293 292 292 292 292 292 293 293 293 293 293 292
293 293 294 297 298 296 296 296 296 298 298 299 301 301 300 300 299 300 303 300 297 298 298 297 297 298 299 300 300 301 300 299 299 299 297 297 297 297 297 298 298 298 299 300 300 300 301 301 301 301 301 301 301 300 299 298 298 298 299 299 299 299 299 300 300 301 301 301 301 300 300 299 297 295 295 295 293 292 291 292 292 292 292 292 293 292 293 293
Wind_Speed
4 4 4 4 3 3 3 3 3 2 2 2 2 3 3 3 4 4 4 4 5 5 5 6 6 6 7 8 8 9 11 12 9 6 7 6 4 6 9 6 3 8 12 10 10 9 7 6 6 6 6 4 1 0 1 1 1 3 3 4 4 4 4 4 7 6 1 4 4 2 4 6 7 2 1 2 6 10 10 10 10 9 12 15 14 12 11 9
4 3 4 4 3 3 3 3 3 3 3 3 3 3 4 4 5 5 5 5 6 5 5 6 6 6 7 7 8 8 12 13 9 8 8 4 1 3 6 8 6 7 12 12 12 10 7 6 6 5 4 3 0 0 2 1 2 4 2 3 5 5 3 4 7 6 4 7 6 2 3 4 7 3 1 5 10 9 12 14 10 12 16 17 17 18 17 12
4 4 4 4 4 4 4 4 4 4 4 4 4 4 4 5 6 6 6 6 7 7 7 7 7 7 7 7 7 8 12 11 8 5 6 5 2 1 3 6 7 8 13 13 12 11 6 6 9 7 3 2 1 1 2 2 3 3 3 6 7 6 4 4 7 8 7 7 8 6 2 4 7 2 1 6 12 11 13 15 11 12 14 12 13 15 14 13
5 5 5 5 4 4 5 5 5 6 6 6 6 6 6 7 7 8 8 8 8 9 9 8 8 8 8 8 7 8 10 9 4 4 9 5 2 1 2 5 7 10 13 11 10 10 6 7 9 4 3 3 1 1 4 3 2 2 4 8 5 3 5 6 9 10 6 4 7 7 3 7 6 2 5 6 9 12 14 14 14 15 14 11 11 8 9 10
6 6 6 5 5 5 5 5 5 6 7 7 7 7 7 8 8 9 9 9 10 10 10 10 10 9 8 8 6 7 8 5 2 8 7 1 3 3 3 5 8 11 13 12 10 10 7 8 7 3 3 4 3 3 5 5 2 2 7 11 7 2 5 6 6 6 3 1 5 7 7 7 1 3 9 9 9 13 13 12 13 15 14 13 13 6 5 8
7 6 6 6 6 6 6 6 6 6 6 7 7 7 7 8 8 9 10 10 10 11 11 10 10 9 8 7 5 3 3 4 3 7 5 5 7 5 4 6 9 13 14 12 11 11 7 7 7 4 3 4 6 6 4 5 4 6 8 9 9 6 7 6 2 2 3 4 7 7 7 4 4 9 10 13 16 19 18 15 15 16 14 12 10 6 6 9
7 7 6 6 6 6 6 6 5 5 6 6 7 7 7 8 8 9 10 10 10 10 11 10 10 9 8 5 1 1 1 6 8 8 8 10 9 6 6 8 12 15 15 13 12 10 6 7 8 4 4 4 6 8 3 3 5 7 9 6 7 6 9 8 1 2 4 7 10 6 7 8 12 10 5 13 20 23 22 19 18 19 15 10 10 12 12 13
7 8 7 7 7 7 6 6 6 6 6 7 7 7 8 8 9 10 10 11 11 11 10 9 9 8 6 1 2 2 3 10 14 12 12 13 10 7 8 10 14 16 16 15 13 10 7 8 8 3 5 6 3 5 3 3 6 9 12 8 4 4 9 9 3 5 7 9 9 6 10 18 16 7 8 18 21 21 20 19 19 17 15 12 13 16 14 14
7 8 7 7 7 7 6 6 6 7 7 8 7 8 9 10 10 11 11 12 12 12 10 9 8 6 4 1 2 4 5 11 14 12 12 11 10 9 10 12 16 18 15 14 12 10 8 8 8 5 5 3 3 3 3 5 6 8 11 8 5 7 9 8 7 9 9 8 6 7 16 20 9 2 14 23 21 19 17 18 18 13 14 14 13 14 14 14
8 8 7 7 6 6 6 6 7 8 8 8 8 9 10 11 12 13 13 13 13 13 11 10 8 5 5 3 3 6 5 7 9 8 9 9 9 10 13 12 17 20 14 11 12 11 8 5 4 3 2 1 3 3 3 6 2 0 5 8 9 12 11 7 9 10 8 9 9 11 18 18 3 3 14 16 8 10 11 14 14 9 12 13 11 11 11 12
8 7 7 6 6 6 7 7 8 8 8 8 9 10 11 12 13 13 14 14 14 14 12 11 8 6 4 4 6 7 2 4 5 7 9 9 9 11 14 13 16 20 13 9 12 14 8 3 8 4 1 2 3 3 3 4 2 4 4 10 12 12 13 10 12 11 7 7 9 12 16 16 4 4 16 16 3 2 7 12 13 11 12 12 11 10 8 10
7 7 6 6 6 7 8 9 9 9 9 10 11 12 12 13 14 14 14 14 14 14 13 10 7 6 4 4 9 10 7 7 7 8 10 10 10 11 12 12 14 18 14 7 10 16 10 5 11 6 1 3 1 2 3 1 2 3 3 9 13 11 15 15 12 8 6 5 5 9 9 11 10 12 19 18 7 3 7 12 14 13 12 10 10 9 8 9
5 5 6 6 6 7 8 9 10 10 11 12 13 13 14 14 15 15 14 14 13 12 11 9 7 6 4 4 6 9 13 11 10 11 11 10 9 9 10 10 12 15 14 8 6 11 12 9 11 6 1 3 3 1 2 2 1 5 3 4 10 11 11 8 4 1 3 5 7 7 6 7 11 15 17 10 3 5 9 13 13 12 11 9 8 7 9 11
5 5 5 6 7 7 8 10 11 12 12 13 14 14 15 16 15 14 13 12 11 11 9 7 6 7 4 6 3 4 8 9 10 12 11 11 9 7 7 8 11 13 12 9 4 5 11 10 6 2 1 3 2 1 2 1 1 5 3 2 5 8 6 1 4 2 4 3 9 8 8 8 9 13 12 2 1 5 10 14 13 12 11 9 9 9 12 13
5 5 5 6 7 8 9 10 12 13 14 15 15 16 16 14 12 11 10 9 8 7 5 5 8 7 2 7 4 3 4 5 8 11 11 11 9 5 6 9 9 9 8 8 4 3 10 10 5 2 1 0 2 4 5 2 1 3 4 4 4 5 6 5 3 6 8 2 6 7 7 8 9 11 10 2 2 3 8 14 15 17 16 13 13 12 13 14
5 5 5 6 7 8 9 11 12 14 15 15 17 18 14 9 9 8 6 4 2 4 6 5 9 6 3 4 2 1 2 4 6 8 9 11 10 6 8 9 7 6 5 4 5 8 9 8 2 1 1 2 4 5 4 4 4 4 5 8 6 7 8 7 6 7 7 2 5 11 9 8 6 9 9 3 3 7 10 16 20 22 20 16 14 12 12 12
6 6 6 7 7 8 9 11 12 14 16 16 18 16 8 6 7 5 4 5 6 9 7 4 7 4 4 3 2 2 1 3 4 4 6 9 9 9 10 7 5 7 9 8 8 8 5 3 1 0 2 3 2 2 4 5 6 5 5 6 7 9 9 7 7 5 3 4 7 12 12 13 12 13 14 12 14 14 15 19 21 21 18 16 14 13 11 9
8 7 8 8 8 9 10 11 13 15 16 16 18 11 4 5 5 7 8 9 10 9 6 5 5 2 3 3 2 2 2 2 3 2 5 8 9 11 9 5 6 9 9 6 4 4 1 1 1 2 4 4 3 4 6 8 10 8 5 6 6 7 9 9 10 5 3 7 10 10 14 16 16 15 15 17 17 16 17 19 20 19 18 16 14 13 10 8
9 10 10 10 10 10 10 11 13 15 16 16 15 6 2 4 3 6 6 5 4 1 1 3 4 2 2 2 2 1 2 4 3 3 6 9 11 10 6 6 7 7 6 4 4 4 2 3 2 4 6 8 9 10 12 12 10 8 6 7 9 9 9 12 14 9 6 11 13 14 19 17 15 14 13 15 15 16 19 19 18 15 14 15 14 11 7 6
8 11 12 11 11 11 11 11 12 15 15 16 14 4 1 3 0 1 1 2 4 4 3 4 7 4 6 4 0 1 2 3 2 2 8 11 12 10 5 4 4 3 4 4 4 3 2 5 6 7 9 11 12 13 16 11 6 5 6 8 10 11 12 13 15 11 2 6 11 13 19 19 17 17 15 16 17 18 21 19 15 14 15 14 11 5 5 6
7 10 10 11 12 12 11 11 13 13 12 14 12 3 1 2 2 2 3 5 8 7 8 9 7 9 11 4 3 2 0 1 2 3 7 11 10 8 4 4 5 4 3 2 3 3 2 7 7 11 14 9 5 6 9 9 8 10 9 10 10 10 13 13 14 13 2 3 8 9 17 19 17 19 18 18 18 18 19 16 16 18 17 10 4 6 7 5
10 10 9 10 10 11 12 12 14 12 10 10 9 5 2 1 2 1 2 5 7 6 9 9 4 8 12 6 2 1 2 4 1 3 7 9 5 4 4 5 6 4 3 3 2 2 4 8 10 15 12 1 1 1 3 8 10 11 8 8 9 8 12 11 10 10 2 2 8 11 15 16 17 22 21 17 15 15 16 15 17 17 12 7 7 6 4 4
12 11 10 9 9 10 11 12 14 11 8 8 7 4 1 1 3 3 2 3 5 4 5 6 4 6 8 5 4 4 4 7 3 2 8 9 3 2 4 6 6 2 4 7 7 5 5 5 9 14 8 3 6 4 4 7 8 9 8 7 9 8 9 8 5 1 1 4 10 13 14 13 15 16 12 10 10 10 14 16 14 7 5 7 5 2 2 2
12 11 10 9 9 7 8 12 13 8 6 5 4 3 2 1 3 5 3 2 4 4 2 2 3 4 3 2 3 6 6 4 1 2 7 8 4 2 3 5 5 4 6 11 11 10 8 1 1 4 4 8 11 6 6 8 8 9 9 8 11 12 11 11 7 5 7 8 5 10 12 7 4 2 1 2 4 5 12 12 3 6 7 4 2 1 2 3
9 8 8 8 7 6 7 10 8 4 5 2 1 4 3 1 3 5 3 2 2 2 1 3 2 2 1 1 1 3 3 2 0 1 2 3 2 3 2 1 2 6 7 8 8 10 9 0 3 2 3 5 8 7 9 9 8 8 7 11 16 15 14 15 11 8 8 5 1 7 9 3 1 1 4 6 3 7 12 5 7 9 7 5 5 5 4 3
10 7 6 6 7 7 7 6 3 3 5 0 0 5 3 1 1 5 2 2 3 2 2 2 2 2 2 1 1 2 3 3 1 1 1 1 1 1 2 2 1 3 2 3 3 5 4 1 2 3 3 4 5 8 9 8 8 8 3 6 12 13 13 12 9 6 5 4 1 3 5 6 4 4 6 6 5 11 13 2 8 7 5 5 5 6 5 5
13 12 10 9 8 7 5 2 3 5 3 1 1 4 3 3 0 4 2 3 3 1 2 0 0 1 1 0 0 2 2 1 2 1 1 0 1 1 3 3 2 0 2 2 2 2 3 2 2 2 4 5 6 7 6 9 7 5 2 2 4 7 8 5 5 5 5 6 3 3 4 8 7 4 3 4 8 13 12 3 9 8 7 6 5 6 7 9
10 11 12 11 9 8 6 4 4 3 2 1 2 4 5 4 1 2 2 4 3 2 2 0 2 2 1 1 0 1 1 1 1 1 2 1 1 1 3 5 3 2 3 3 4 1 3 4 5 6 5 5 7 4 5 10 7 2 3 2 1 1 3 2 4 5 4 6 4 4 5 6 8 2 3 3 8 9 6 7 11 9 8 5 5 8 11 12
7 7 8 10 9 9 8 7 5 4 4 3 3 3 5 4 2 1 1 3 1 2 1 1 3 1 1 2 0 2 1 1 1 1 1 0 0 1 2 2 1 3 3 4 6 4 1 2 3 5 5 6 5 1 4 10 6 1 4 3 4 2 2 1 3 4 3 6 6 6 8 7 9 2 4 2 3 3 4 9 11 8 5 4 6 10 12 12
4 4 5 7 8 8 8 8 9 7 7 5 3 4 4 3 1 2 4 3 1 1 1 1 2 1 1 3 1 1 1 0 1 1 1 1 1 1 0 0 1 2 2 3 7 5 1 2 2 3 5 3 3 3 1 3 2 2 4 1 1 2 2 0 2 2 4 9 6 9 13 9 6 1 2 1 0 0 2 6 8 7 5 5 8 11 12 11
3 3 4 7 8 7 5 4 6 7 7 5 2 3 2 1 1 4 5 1 1 1 2 1 0 1 2 2 1 1 1 0 1 2 2 2 2 2 1 2 1 2 2 3 5 4 2 2 2 2 2 1 4 3 2 2 1 1 2 1 2 2 0 1 1 1 5 7 2 2 5 8 8 2 1 1 2 2 2 2 4 8 8 8 10 11 10 9
3 3 4 7 9 8 6 3 1 4 6 3 1 1 0 1 3 5 2 1 1 1 1 0 1 1 2 0 0 1 1 1 2 3 3 2 3 3 4 4 2 3 4 2 2 1 3 5 3 1 1 3 4 2 2 2 1 3 3 1 2 2 1 2 1 2 6 5 2 3 2 6 10 5 5 10 9 2 2 4 7 10 9 8 10 10 9 8
5 5 5 7 10 10 10 7 3 3 6 6 2 2 2 3 5 3 2 2 1 0 1 1 2 1 2 1 2 1 0 1 3 2 2 2 2 3 5 4 2 2 3 1 2 3 3 2 4 2 2 5 9 6 3 3 4 6 5 4 3 1 1 3 3 3 5 2 2 2 1 5 8 6 8 12 10 4 7 7 8 9 9 9 10 10 10 10
8 8 8 8 11 12 12 10 6 5 9 8 2 2 2 6 3 2 3 5 2 1 0 2 2 1 2 2 2 2 2 2 3 2 1 2 1 2 4 4 4 2 1 1 2 2 5 5 4 6 2 7 12 8 2 3 4 6 4 3 4 4 3 4 4 4 5 3 1 1 2 4 4 0 3 5 6 4 8 8 9 10 10 9 10 10 11 11
7 8 10 10 12 13 13 12 8 8 11 6 2 2 6 6 2 2 5 5 2 2 1 1 2 1 3 3 1 1 4 3 2 2 2 3 2 3 3 3 6 5 2 2 1 2 5 7 3 3 1 7 11 5 3 4 2 2 2 2 4 5 5 4 4 3 2 4 3 3 3 5 5 5 5 7 2 9 13 11 12 12 10 9 9 10 9 9
6 7 8 11 14 14 14 14 11 11 10 5 2 6 7 5 4 4 3 2 2 1 1 1 2 3 6 3 1 1 2 2 1 1 3 3 3 3 3 2 5 9 6 4 2 1 4 5 3 4 2 5 5 1 2 2 1 3 3 4 2 0 3 4 4 1 1 5 5 4 6 7 7 9 5 2 8 14 13 11 12 10 9 9 9 8 8 8
5 4 5 8 13 14 15 15 15 13 8 4 6 8 4 4 7 6 3 2 1 2 1 2 2 2 4 2 2 2 2 1 1 1 2 2 3 3 4 3 3 9 8 3 2 3 5 6 2 5 5 3 1 1 1 2 1 4 3 3 1 2 1 3 3 1 3 7 5 5 10 10 7 6 3 11 12 11 10 10 9 8 8 9 8 7 7 7
3 3 4 8 12 14 15 18 18 13 5 4 10 10 4 4 5 4 3 3 1 2 2 4 3 1 2 4 3 3 3 3 2 2 2 2 3 3 3 3 3 5 4 0 1 2 2 6 4 4 5 1 3 2 2 1 1 1 1 1 1 2 3 3 3 3 6 8 5 7 12 10 7 8 4 5 7 8 9 9 7 7 8 7 7 7 7 7
5 3 2 5 9 13 18 21 18 9 4 6 11 9 5 4 2 2 3 2 2 2 4 5 4 3 4 4 3 1 3 4 2 2 3 3 4 3 3 2 2 1 1 1 3 1 1 5 4 1 0 2 3 3 4 4 1 1 2 2 1 2 4 3 2 2 5 9 8 8 10 8 8 9 8 2 5 6 7 7 7 7 6 5 5 5 5 6
4 2 1 1 6 14 21 20 13 7 6 7 8 5 3 2 1 1 2 2 2 2 3 4 4 5 5 3 3 2 2 4 3 3 3 1 3 3 1 1 0 2 3 2 1 2 1 4 5 1 0 2 4 5 6 6 5 4 4 4 3 2 1 3 3 3 5 8 8 9 9 6 4 4 1 5 6 5 6 7 6 6 6 5 5 4 4 4
2 1 1 1 8 18 20 14 8 6 7 6 7 6 3 1 1 0 1 1 2 1 0 2 4 5 4 2 3 2 1 2 3 4 3 2 4 4 3 4 2 1 1 2 1 1 2 3 5 4 4 6 7 3 4 6 4 4 6 7 7 6 3 5 7 6 6 6 5 7 8 5 1 3 6 8 6 6 7 8 7 6 5 4 4 3 3 2
1 2 1 2 13 23 17 8 5 3 4 5 5 5 3 0 1 1 1 2 1 1 1 1 3 4 4 5 7 5 3 4 5 5 5 4 8 7 3 5 3 1 1 2 1 0 1 1 5 8 7 11 12 2 3 2 2 2 5 5 4 5 6 8 8 5 6 5 4 7 9 4 3 6 8 7 7 7 7 7 8 6 5 5 3 2 2 1
2 2 1 5 19 24 12 6 6 3 3 3 1 2 2 1 1 2 2 1 1 1 1 2 3 4 5 5 6 5 3 4 6 8 6 4 5 4 4 6 4 2 2 3 2 1 1 1 4 7 7 9 12 6 3 2 1 4 6 3 3 5 6 6 5 3 3 5 5 8 8 3 2 4 7 8 8 8 6 6 8 7 5 5 4 3 2 1
1 1 1 4 19 21 9 5 7 6 7 6 4 6 5 2 2 3 2 2 2 2 1 1 2 3 3 0 1 3 2 2 5 5 3 3 1 1 3 5 4 2 1 1 2 2 2 2 3 5 6 6 9 8 3 2 1 2 4 3 4 6 7 8 6 3 4 8 11 10 8 4 1 3 6 8 8 8 6 5 5 6 5 4 4 3 2 1
1 1 1 0 8 9 4 2 4 6 9 9 10 10 8 4 3 3 5 5 3 3 2 2 1 2 2 0 0 2 3 4 4 2 1 2 2 1 2 4 4 2 0 1 1 1 2 2 2 5 7 6 7 7 2 1 2 3 3 4 6 6 6 7 6 7 7 7 10 10 8 5 2 3 3 3 5 6 6 6 4 4 4 3 2 1 1 1
1 2 1 0 0 1 2 1 1 4 7 8 8 8 11 11 4 1 4 6 5 5 5 5 2 1 3 3 4 5 6 6 5 3 3 3 2 0 1 2 3 3 1 0 1 0 2 2 4 7 9 8 9 8 4 3 4 6 6 6 8 7 7 7 6 7 7 6 7 8 8 9 7 5 7 6 4 2 4 6 5 4 3 2 1 1 1 1
1 1 2 2 1 2 2 1 1 3 3 5 5 4 9 13 8 3 3 2 1 2 4 5 4 5 5 4 6 8 8 8 7 6 7 6 3 1 1 2 3 4 1 0 1 0 2 4 7 10 11 11 12 12 9 7 7 9 10 10 10 11 11 10 10 10 9 8 8 8 10 11 10 9 11 10 8 4 2 4 4 4 3 2 1 1 1 1
0 1 1 1 1 3 3 2 2 2 2 3 3 3 5 7 7 5 2 1 1 1 2 4 3 2 3 1 2 3 4 5 6 5 4 3 1 1 1 2 2 4 2 0 1 1 3 8 9 9 11 12 13 12 10 7 7 9 11 12 12 13 14 15 15 14 13 12 11 13 16 16 13 15 16 10 3 1 4 4 3 3 2 2 2 2 2 2
0 1 1 2 1 1 1 1 3 2 4 3 2 4 5 8 9 6 1 2 1 0 2 4 1 4 3 2 1 2 4 4 5 4 0 1 1 1 2 2 1 3 4 2 2 1 2 6 5 4 8 10 10 11 9 8 8 9 11 12 14 16 17 17 17 17 17 17 17 19 22 22 17 15 11 3 5 4 4 3 2 2 3 4 4 4 4 4
0 1 1 1 2 3 2 2 2 1 2 2 3 3 3 7 11 6 1 1 4 3 2 2 1 3 2 3 2 4 4 3 7 6 0 1 3 1 1 3 0 2 3 2 2 2 3 4 2 3 6 8 9 11 11 9 9 10 11 12 16 19 18 17 17 16 16 17 18 20 21 18 10 3 3 5 5 4 3 1 2 3 4 5 6 7 6 6
2 2 1 1 2 3 2 1 2 1 2 3 4 3 1 4 6 3 1 1 2 3 1 2 3 3 2 2 2 4 3 2 3 3 2 2 3 1 0 1 1 3 3 1 1 2 3 4 3 4 6 7 7 11 13 10 9 12 13 15 19 19 16 15 15 14 14 16 17 18 16 10 2 4 5 5 4 2 1 2 3 3 5 6 7 8 8 8
3 2 1 1 1 2 3 2 2 2 2 1 2 1 1 1 1 0 3 3 6 5 5 6 3 2 1 5 5 3 5 5 4 4 3 4 4 3 4 5 5 5 3 1 1 2 3 4 4 5 6 6 8 11 9 6 7 11 11 13 18 18 17 17 16 15 17 16 13 12 8 2 2 3 3 3 2 1 3 3 3 4 5 7 8 10 10 9
Wind_Direction
18 14 8 14 11 8 7 357 357 355 347 333 329 327 324 323 322 327 333 334 336 338 338 342 345 347 350 351 350 343 333 321 306 282 258 268 271 232 231 239 236 210 202 186 173 163 147 164 163 157 165 155 321 321 144 17 167 213 222 236 247 245 234 195 208 210 250 293 261 177 171 245 277 261 147 249 239 248 262 252 230 230 242 240 247 260 259 262
8 1 356 359 351 349 342 338 336 330 322 314 311 305 307 307 307 312 315 318 318 318 323 326 329 333 337 341 345 341 329 316 292 267 253 242 221 236 236 235 232 202 192 186 182 172 164 178 165 165 183 188 266 61 218 185 198 227 222 242 244 245 224 189 223 216 224 276 285 257 182 233 277 309 54 270 269 259 268 270 239 232 246 242 243 246 247 246
355 350 349 349 343 336 328 328 324 322 319 312 309 302 302 301 302 304 305 309 308 309 313 314 320 325 328 332 339 342 329 311 287 250 193 151 107 272 253 230 219 196 190 193 192 187 191 178 165 172 193 215 170 133 225 173 197 226 219 248 248 243 238 210 231 229 234 273 286 273 212 240 262 266 209 261 278 270 260 268 256 244 252 248 238 232 228 227
351 344 344 343 339 333 324 323 321 323 321 318 315 308 307 303 304 305 304 306 305 306 308 311 317 320 324 326 333 343 329 299 278 161 155 140 55 19 273 231 206 192 189 194 193 191 184 153 157 174 204 215 154 184 225 189 192 186 201 247 257 240 252 227 223 235 242 270 273 273 274 266 264 197 221 242 277 270 253 252 251 259 271 272 262 232 199 212
347 343 343 341 339 332 326 322 321 323 322 324 322 317 313 307 306 305 302 303 302 303 304 308 313 318 322 320 328 344 330 307 165 152 163 191 330 320 280 225 199 189 185 186 177 169 160 148 151 151 214 222 170 194 225 189 170 217 220 247 260 220 260 244 213 232 230 224 256 257 267 277 292 214 224 222 250 262 261 258 254 266 279 281 278 260 191 213
341 341 340 338 335 330 329 324 325 328 327 329 324 323 317 312 310 305 302 301 301 301 302 307 310 317 320 316 321 331 314 302 190 185 219 273 290 293 248 208 190 185 184 181 159 157 159 155 177 187 205 231 206 213 224 166 175 251 235 238 251 234 249 256 159 180 178 205 242 247 277 298 257 260 234 213 236 252 262 272 273 276 277 276 279 264 231 227
338 341 339 337 334 333 333 326 332 338 334 332 325 322 314 310 307 301 301 299 300 301 303 308 310 315 318 318 301 216 219 261 256 242 259 269 270 265 224 197 185 187 184 176 161 170 173 171 202 202 206 233 220 219 206 156 189 250 255 241 249 241 247 259 172 180 212 235 249 265 298 278 254 265 243 221 237 250 262 271 271 274 274 270 267 257 251 246
338 339 341 339 338 340 340 340 348 344 336 334 326 320 311 307 302 298 298 295 296 296 298 303 304 313 312 283 204 243 197 246 265 265 267 266 258 241 210 186 185 189 186 187 179 178 175 188 204 173 223 237 209 206 171 195 211 226 251 256 246 247 254 264 245 222 242 248 252 266 273 265 259 277 273 252 248 253 262 269 268 269 268 261 258 258 255 254
337 339 343 343 345 348 351 356 355 345 341 337 327 322 314 309 303 299 296 294 293 291 293 293 293 300 284 192 201 262 229 251 268 268 265 259 247 226 198 187 189 187 189 199 189 176 180 203 206 188 246 248 190 212 169 219 231 214 245 272 273 273 273 272 260 239 240 244 222 231 259 264 266 321 273 260 254 257 259 265 270 267 264 259 254 255 252 252
337 340 342 345 354 360 5 4 358 350 343 338 330 324 317 312 306 302 298 294 292 289 288 284 283 277 254 180 211 261 254 260 263 252 255 248 236 210 193 197 192 187 189 197 190 185 193 205 176 163 289 292 205 215 168 217 258 150 270 291 280 278 281 261 260 253 242 250 215 217 257 265 236 114 268 265 242 247 251 259 268 262 259 260 253 252 249 249
338 340 343 353 6 13 17 11 5 358 350 345 334 324 319 313 307 302 299 294 290 287 284 279 272 257 226 183 231 259 254 250 250 242 247 240 225 204 200 205 196 194 190 186 198 199 206 179 129 124 278 172 198 198 204 239 346 12 324 297 280 278 280 253 252 254 233 249 217 211 253 265 237 187 253 263 238 224 260 267 269 262 260 262 261 259 248 246
339 343 352 8 21 23 22 17 13 5 357 350 337 329 323 314 308 303 298 293 288 284 279 270 254 229 203 218 242 249 248 244 251 251 245 232 216 204 206 208 202 203 199 193 213 211 211 168 158 184 212 147 217 223 231 300 22 326 306 292 290 288 283 266 254 245 208 229 179 185 243 255 233 224 244 256 267 289 277 273 271 267 265 264 265 267 259 253
349 357 4 16 24 21 18 17 14 7 360 350 340 334 324 317 311 304 298 293 288 283 272 258 237 204 208 258 242 241 250 244 243 249 243 227 213 206 207 208 205 208 213 219 233 220 209 183 181 205 143 192 247 111 163 96 101 273 254 280 296 290 283 269 238 214 216 211 154 174 251 255 232 238 251 256 265 291 280 272 273 270 269 268 265 269 268 262
359 5 6 13 15 9 9 11 7 2 357 348 341 333 325 319 312 307 303 295 287 277 260 238 207 173 198 263 262 252 253 241 236 238 236 225 208 196 198 201 202 207 217 222 246 231 200 179 163 165 153 235 280 85 225 180 177 273 274 226 273 273 279 55 131 160 258 199 156 198 260 265 256 266 271 285 83 284 283 280 280 275 270 270 266 263 267 267
1 1 359 6 3 359 3 3 359 357 353 347 340 333 326 320 317 318 310 296 286 263 222 182 176 163 236 266 264 282 252 234 229 230 234 223 202 184 183 186 190 199 205 211 221 186 174 164 145 182 183 181 265 258 263 289 231 253 272 253 229 236 266 291 250 225 250 252 159 208 260 259 249 270 278 23 79 253 274 283 285 281 277 274 270 264 265 269
349 346 350 356 354 355 358 357 354 353 351 347 340 334 329 328 333 333 324 309 290 170 145 147 163 166 289 264 234 291 225 215 221 232 231 215 208 190 161 159 156 161 160 150 140 134 144 151 149 266 231 211 230 244 266 286 259 218 237 261 255 253 276 295 280 245 231 188 190 220 257 275 247 267 279 278 265 262 273 282 281 282 283 278 274 270 264 270
335 334 343 344 345 351 353 354 354 353 353 349 342 338 339 354 355 7 53 93 102 113 119 139 152 166 273 241 256 273 190 210 218 233 217 202 204 184 151 132 119 122 115 107 121 124 124 146 157 266 210 236 219 221 261 266 261 234 218 246 256 255 271 289 285 282 183 178 226 229 242 263 261 270 279 278 278 277 277 279 277 277 280 278 277 276 273 282
331 331 338 336 337 347 351 354 355 354 355 351 344 344 9 17 35 71 87 103 101 102 104 114 144 209 238 200 271 276 102 158 179 164 185 177 174 174 155 127 132 131 123 115 135 145 148 156 206 226 211 222 202 204 236 241 254 266 259 266 276 252 247 264 270 288 296 263 269 261 252 261 265 262 266 271 275 275 270 270 270 271 276 280 278 279 286 299
330 329 333 331 333 342 347 352 356 356 356 355 351 350 45 22 75 91 82 97 103 143 103 140 187 262 289 241 291 274 132 135 151 145 152 151 155 158 138 125 136 142 150 161 176 177 172 147 174 219 218 220 210 207 226 240 260 285 293 279 283 278 262 265 268 272 290 283 279 274 272 278 281 271 267 270 272 272 268 265 269 275 277 276 275 282 309 336
316 319 326 333 336 340 343 349 357 358 358 0 357 344 63 10 266 106 6 271 249 265 309 243 220 268 295 288 48 178 170 149 151 151 151 149 150 142 115 119 129 161 185 172 166 162 187 196 191 212 228 233 222 216 233 254 300 301 278 270 269 277 276 272 276 278 271 279 271 265 276 286 288 283 278 273 270 269 268 270 277 280 274 272 280 312 20 17
293 308 322 333 338 339 342 350 357 359 360 6 9 11 83 4 311 335 326 277 253 248 260 246 229 254 265 288 69 109 14 213 122 113 153 151 155 161 153 155 166 191 188 112 109 109 206 220 210 225 238 249 244 232 248 264 278 268 263 274 271 268 273 270 275 282 283 276 272 263 276 286 289 285 276 268 266 266 270 276 277 271 269 279 347 38 34 360
271 284 302 316 326 334 339 344 348 354 0 16 38 71 110 267 255 257 307 287 267 237 241 247 247 257 259 285 319 360 338 269 187 111 155 150 167 209 162 165 195 200 144 127 150 155 212 228 225 232 238 272 356 235 248 252 256 262 258 268 270 269 279 273 260 273 298 273 285 293 290 289 282 274 273 272 264 261 264 261 259 264 278 321 17 27 360 318
270 269 278 289 303 321 331 333 335 344 359 24 58 90 111 217 201 188 189 281 282 246 229 243 241 250 265 286 258 211 235 250 248 172 169 161 183 215 163 186 203 182 159 188 210 219 228 230 231 239 236 221 244 222 224 257 253 247 247 261 272 268 274 272 243 256 2 266 286 303 294 283 272 260 266 271 251 255 262 252 253 276 342 350 352 335 316 331
271 263 265 272 280 299 317 322 324 334 355 21 61 56 42 114 173 176 196 258 278 273 225 217 229 239 268 297 205 195 213 228 250 202 173 174 176 150 187 204 193 199 208 208 216 234 249 247 160 242 215 221 240 229 222 252 256 242 235 245 263 264 261 266 279 330 308 270 284 314 296 283 277 228 120 262 230 268 267 252 252 60 58 47 72 88 44 40
262 254 252 254 266 294 312 315 314 322 342 360 52 19 39 88 162 179 233 285 256 267 170 171 205 206 190 92 108 192 198 168 303 316 165 194 186 140 184 197 206 229 217 208 219 245 260 47 108 192 184 205 227 234 225 230 260 261 228 227 250 266 272 274 292 323 306 271 64 345 317 302 88 38 335 323 314 279 261 237 86 77 72 77 86 67 54 58
247 254 256 251 265 293 305 307 271 298 335 288 14 5 26 23 177 193 244 305 247 231 141 178 187 160 154 86 58 174 175 149 27 2 130 216 261 192 216 149 185 262 195 183 222 250 260 75 109 209 192 175 205 245 230 206 252 272 238 232 248 264 273 278 297 306 292 292 37 17 306 283 274 256 282 300 273 260 261 255 85 86 72 71 78 68 64 55
245 254 263 263 265 275 283 276 254 290 327 187 352 359 2 5 241 204 245 288 267 153 120 244 181 152 162 85 218 180 175 128 96 84 109 181 214 195 236 201 182 285 124 171 262 227 196 131 89 167 186 185 211 247 215 183 230 268 17 340 263 267 275 278 293 270 277 314 296 183 226 273 285 250 226 244 240 255 274 357 74 87 87 74 65 66 58 45
247 252 256 260 258 256 253 247 259 278 279 264 328 344 355 357 262 225 287 285 294 93 107 72 128 110 81 121 292 115 56 356 132 104 39 332 218 153 240 240 220 184 156 205 255 237 154 177 176 166 176 206 215 225 165 176 218 276 64 32 62 318 305 288 280 269 287 314 285 178 173 263 281 234 165 235 246 265 313 40 65 77 90 83 70 69 56 45
245 248 248 248 246 245 240 234 237 254 263 274 307 330 352 345 287 260 262 263 304 89 58 82 147 108 48 155 85 81 108 354 56 39 35 163 338 49 250 249 194 187 183 218 251 265 130 198 210 177 195 228 214 157 158 182 205 151 132 110 94 102 55 61 282 294 296 285 265 175 170 255 288 228 153 216 265 297 36 71 79 81 77 71 67 62 52 46
230 230 226 222 226 229 225 230 238 248 265 271 293 333 344 328 275 227 224 231 340 63 109 157 177 121 145 170 150 76 158 50 72 75 61 122 131 66 40 218 137 199 206 239 256 258 109 55 322 214 228 250 113 72 5 189 153 124 156 132 118 159 96 131 267 330 285 271 248 180 183 223 278 303 157 190 318 221 91 85 101 104 73 56 56 48 44 46
197 198 190 192 210 212 197 230 242 236 246 259 309 342 320 341 144 222 230 226 333 273 130 133 246 114 149 176 170 130 158 182 131 159 159 149 167 156 195 214 185 209 225 236 245 238 162 179 235 235 246 68 111 104 25 34 46 170 191 303 278 234 96 224 186 122 254 266 280 158 192 221 238 253 62 333 310 230 201 351 81 99 78 58 54 48 47 47
213 209 189 189 203 206 198 209 232 218 219 205 74 348 301 264 231 214 216 17 280 252 145 150 346 114 126 109 223 154 163 206 173 177 168 169 191 187 211 212 179 252 259 234 236 242 195 199 203 295 260 186 183 176 97 87 177 205 203 204 283 311 343 259 233 208 244 263 3 7 332 240 242 254 268 277 293 306 98 18 47 80 77 65 61 58 57 45
237 233 216 205 206 209 215 217 224 224 192 163 139 41 97 231 241 188 162 236 233 93 68 81 62 91 133 224 233 151 292 219 165 188 170 152 220 221 225 216 151 269 274 251 307 293 260 212 148 183 243 187 188 199 201 191 177 185 189 170 177 210 244 253 248 252 260 264 58 13 266 254 267 262 244 261 290 2 62 55 63 77 76 72 67 62 57 45
244 238 229 222 214 215 220 218 218 200 171 157 124 67 200 234 243 105 195 223 239 329 343 97 92 122 172 245 269 160 241 260 140 165 190 155 212 245 235 213 172 195 262 227 299 269 266 283 175 177 176 159 187 212 199 121 163 186 182 167 198 204 217 248 237 240 268 272 126 115 209 257 284 318 184 257 298 31 66 71 81 80 73 72 65 56 51 45
258 244 236 229 221 219 215 211 208 182 167 151 100 182 227 235 186 163 215 222 255 303 306 95 113 234 240 227 272 213 233 252 112 133 199 194 223 234 235 210 177 174 163 223 264 159 244 268 177 138 53 166 185 206 111 113 171 188 126 173 230 216 202 236 250 233 304 307 253 201 239 263 279 297 280 270 284 93 90 80 80 77 71 68 59 51 45 41
266 252 241 229 226 223 212 206 199 184 172 142 155 217 228 230 198 193 198 188 182 141 311 266 171 243 262 226 193 184 198 229 150 180 204 212 255 238 222 245 176 177 180 194 231 198 247 264 116 88 281 202 184 162 153 196 197 141 166 202 222 201 187 236 268 158 91 279 252 226 264 273 281 290 284 137 101 98 95 83 81 80 71 66 58 48 42 39
251 235 228 226 231 226 212 204 193 185 177 163 210 227 223 217 221 214 169 130 153 111 110 260 219 225 260 247 215 170 166 224 161 193 216 210 255 214 203 254 182 190 208 212 238 238 253 270 201 159 213 227 10 340 256 309 114 142 191 213 115 29 224 230 257 170 191 245 239 219 251 270 286 288 120 114 110 104 97 89 86 82 74 71 62 51 42 39
195 180 230 237 232 220 206 199 189 180 169 189 221 235 228 214 225 212 168 125 88 93 159 231 240 219 240 253 251 138 159 206 154 169 223 212 228 173 172 248 184 185 230 234 245 260 263 270 255 189 207 141 66 252 227 222 206 133 266 295 80 246 236 200 212 233 233 244 240 213 233 253 254 246 227 147 132 115 101 92 77 62 62 64 62 55 45 42
149 128 262 241 211 202 195 189 182 174 176 204 223 233 226 226 227 180 170 141 127 163 213 233 233 238 241 238 246 154 181 210 168 192 221 214 230 186 147 241 198 140 355 139 222 279 60 257 266 73 125 102 117 213 210 186 162 41 288 282 291 257 255 225 200 225 237 249 255 233 230 235 229 245 263 232 121 107 102 97 82 70 67 65 67 59 46 46
141 117 275 202 177 183 181 178 176 186 202 210 224 225 208 232 239 165 186 198 197 196 226 233 213 233 249 228 224 239 225 218 204 220 228 224 259 249 84 323 198 74 38 53 266 306 12 258 263 321 40 185 192 205 205 203 193 190 221 228 218 216 282 280 251 214 237 253 255 249 243 232 237 272 229 114 92 82 95 100 95 85 77 71 70 70 64 62
126 109 212 155 163 166 166 171 185 201 209 224 237 234 232 244 219 181 88 133 236 251 266 215 213 237 262 264 243 230 185 227 222 230 240 234 249 253 34 12 348 81 71 43 42 249 267 260 253 256 245 243 245 205 191 233 224 204 220 218 215 207 200 250 243 210 224 244 237 250 252 226 224 44 101 107 88 85 96 101 102 97 92 88 76 72 76 75
134 136 144 143 163 163 163 182 202 191 213 228 229 227 228 213 206 206 80 79 221 279 3 221 226 242 252 261 265 260 248 249 244 243 241 234 240 248 3 15 4 48 300 306 360 357 301 258 248 253 244 254 269 276 120 229 275 269 248 229 228 221 204 231 246 227 229 238 228 254 256 234 80 76 98 105 108 111 112 118 122 124 127 122 117 113 100 80
161 156 91 146 168 169 167 195 202 199 226 223 213 216 200 174 192 173 131 112 180 214 269 248 233 239 242 256 263 258 259 256 247 246 251 257 252 261 341 3 14 19 332 304 313 7 357 259 256 260 252 262 269 254 137 122 209 258 256 239 241 247 241 254 272 291 268 244 241 252 248 235 63 89 112 115 120 121 122 132 133 135 140 139 143 143 131 119
126 166 25 147 174 179 183 202 202 210 220 223 236 235 222 200 207 206 189 198 198 168 185 247 252 245 244 266 235 235 239 253 252 250 252 271 274 93 20 6 27 32 346 311 294 313 297 282 297 286 274 268 263 252 217 100 75 281 281 293 284 276 280 278 267 266 253 230 234 250 254 243 184 121 122 123 127 125 121 128 132 133 137 141 144 143 152 175
85 171 335 182 183 192 212 225 209 211 215 225 235 238 240 234 208 209 215 226 224 181 195 250 250 227 230 165 86 235 223 223 249 264 196 242 259 102 31 6 35 79 198 9 13 332 273 273 286 284 277 271 276 275 258 92 11 315 291 302 316 316 303 291 273 258 250 228 228 247 264 263 202 137 143 143 133 133 138 139 128 119 121 121 118 102 79 55
144 162 185 259 215 237 254 306 258 219 213 221 230 236 240 242 242 159 204 237 244 213 227 249 221 178 226 228 240 255 244 222 217 239 252 255 257 126 30 20 48 59 140 109 32 215 228 230 224 246 263 270 279 282 275 278 283 278 276 280 289 290 287 290 280 263 275 288 265 262 282 288 281 275 273 275 279 240 154 142 133 125 127 125 109 50 31 9
216 164 155 169 173 207 224 247 222 222 218 217 220 239 243 241 247 238 205 234 248 197 231 239 207 208 223 223 234 248 254 239 218 230 256 261 247 262 34 82 48 14 3 173 353 159 219 254 243 245 257 263 272 278 280 279 269 270 279 276 270 271 270 265 258 261 285 295 276 275 283 280 278 280 278 279 282 276 140 131 140 141 145 155 172 222 232 256
276 127 86 323 248 199 214 209 167 199 234 214 215 263 252 230 226 226 206 70 66 137 237 224 195 226 251 220 205 234 260 255 230 223 251 273 284 331 22 102 64 2 6 68 326 130 229 264 261 264 274 272 277 284 284 279 274 273 274 271 269 269 264 259 259 266 275 272 270 283 284 277 276 276 276 283 306 91 112 122 137 142 174 212 238 257 269 293
75 115 19 344 4 126 145 78 94 168 218 201 212 252 246 234 232 223 103 39 308 72 245 235 152 37 10 37 86 254 283 286 266 255 257 347 311 316 297 264 124 34 33 25 313 219 230 262 265 288 293 284 284 290 290 286 283 277 271 270 272 268 264 266 271 270 266 263 267 275 274 271 273 275 279 329 76 98 105 115 156 205 229 233 242 258 266 279
93 146 88 73 89 83 57 50 78 158 217 206 229 239 227 240 246 241 91 292 251 248 282 256 164 84 69 80 110 248 269 290 277 275 94 169 240 224 287 266 196 22 2 355 288 290 280 276 308 357 306 285 284 289 289 289 284 278 273 269 266 265 266 269 271 269 265 263 264 265 265 266 272 302 64 85 91 100 111 146 228 240 246 249 255 259 259 263
69 47 62 105 118 114 111 86 94 157 213 208 228 244 244 248 255 251 92 33 297 271 262 116 123 116 130 154 220 240 225 165 226 226 135 186 252 299 7 273 7 337 315 248 229 299 297 290 325 331 290 272 277 285 286 292 288 274 264 258 256 257 258 257 257 256 259 263 264 263 264 267 294 76 92 104 95 88 180 248 260 256 251 250 255 261 260 260
93 54 47 84 99 131 137 127 142 186 213 200 205 204 175 262 360 181 193 82 56 53 75 88 76 35 232 253 272 227 173 164 179 188 181 211 236 241 233 238 253 263 256 247 269 252 246 266 283 282 276 270 272 279 293 313 291 266 250 246 249 250 252 254 253 251 253 257 263 267 271 281 92 101 112 118 109 295 279 275 267 263 260 248 247 257 262 264